| time (UTC) | temp F | wind direction | speed MPH | gust MPH | rain 1hr in | rain 24hr in | rain mn in | humidity % | barometer mb |
| 20260903224527 | 83 | 22 | 0.0 | 0.0 | 0.00 | 0.17 | 0.17 | 75 | 1012.7 |
| 20260903224014 | 84 | 358 | 0.0 | 0.0 | 0.00 | 0.17 | 0.17 | 75 | 1012.8 |
| 20260903223510 | 84 | 326 | 0.0 | 0.0 | 0.00 | 0.17 | 0.17 | 75 | 1012.8 |
| 20260903223027 | 84 | 326 | 0.0 | 0.0 | 0.00 | 0.17 | 0.17 | 75 | 1012.8 |
| 20260903222516 | 83 | 326 | 0.0 | 0.0 | 0.00 | 0.17 | 0.17 | 76 | 1012.8 |
| 20260903222014 | 85 | 326 | 0.0 | 0.0 | 0.00 | 0.17 | 0.17 | 75 | 1012.8 |
| 20260903221529 | 86 | 271 | 0.0 | 0.0 | 0.00 | 0.17 | 0.17 | 71 | 1012.7 |
| 20260903221015 | 86 | 271 | 0.0 | 0.0 | 0.00 | 0.17 | 0.17 | 72 | 1012.7 |
| 20260903220515 | 86 | 267 | 0.0 | 0.0 | 0.00 | 0.17 | 0.17 | 71 | 1012.5 |
| 20260903220034 | 86 | 240 | 0.0 | 0.0 | 0.00 | 0.17 | 0.17 | 71 | 1012.5 |
| 20260903215514 | 87 | 240 | 0.0 | 0.0 | 0.00 | 0.17 | 0.17 | 70 | 1012.5 |
| 20260903215010 | 87 | 240 | 0.0 | 0.0 | 0.00 | 0.17 | 0.17 | 71 | 1012.5 |
| 20260903214519 | 87 | 240 | 0.0 | 0.0 | 0.00 | 0.17 | 0.17 | 70 | 1012.5 |
| 20260903214010 | 87 | 233 | 0.0 | 0.0 | 0.00 | 0.17 | 0.17 | 70 | 1012.5 |
| 20260903213509 | 87 | 230 | 0.0 | 0.0 | 0.00 | 0.17 | 0.17 | 71 | 1012.5 |
| 20260903213035 | 87 | 229 | 0.0 | 0.0 | 0.00 | 0.17 | 0.17 | 70 | 1012.5 |
| 20260903212510 | 87 | 257 | 0.0 | 0.0 | 0.00 | 0.17 | 0.17 | 69 | 1012.4 |
| 20260903212012 | 87 | 236 | 0.0 | 0.0 | 0.00 | 0.17 | 0.17 | 70 | 1012.5 |
| 20260903211527 | 87 | 217 | 0.0 | 0.0 | 0.00 | 0.17 | 0.17 | 70 | 1012.7 |
| 20260903211016 | 87 | 240 | 0.0 | 0.0 | 0.00 | 0.17 | 0.17 | 70 | 1012.7 |
| 20260903210518 | 87 | 199 | 0.0 | 0.0 | 0.00 | 0.17 | 0.17 | 69 | 1012.7 |
| 20260903210033 | 88 | 349 | 0.0 | 0.0 | 0.00 | 0.17 | 0.17 | 69 | 1012.7 |
| 20260903205520 | 88 | 193 | 0.0 | 0.0 | 0.00 | 0.17 | 0.17 | 69 | 1012.5 |
| 20260903205020 | 88 | 115 | 0.0 | 0.0 | 0.00 | 0.17 | 0.17 | 69 | 1012.5 |
| 20260903204533 | 88 | 296 | 0.0 | 0.0 | 0.00 | 0.17 | 0.17 | 68 | 1012.6 |
| 20260903204014 | 88 | 237 | 0.0 | 0.0 | 0.00 | 0.17 | 0.17 | 68 | 1012.5 |
| 20260903203508 | 88 | 266 | 0.0 | 0.0 | 0.00 | 0.17 | 0.17 | 68 | 1012.6 |
| 20260903203017 | 88 | 264 | 0.0 | 0.0 | 0.00 | 0.17 | 0.17 | 69 | 1012.5 |
| 20260903202511 | 88 | 290 | 0.0 | 0.0 | 0.00 | 0.17 | 0.17 | 67 | 1012.5 |
| 20260903202011 | 88 | 148 | 0.0 | 0.0 | 0.00 | 0.17 | 0.17 | 68 | 1012.5 |
| 20260903201527 | 88 | 158 | 0.0 | 0.0 | 0.00 | 0.17 | 0.17 | 69 | 1012.6 |
| 20260903201019 | 87 | 217 | 0.0 | 0.0 | 0.00 | 0.17 | 0.17 | 69 | 1012.6 |
| 20260903200516 | 88 | 226 | 0.0 | 0.0 | 0.00 | 0.17 | 0.17 | 69 | 1012.7 |
| 20260903200030 | 88 | 131 | 0.0 | 0.0 | 0.00 | 0.17 | 0.17 | 70 | 1012.8 |
| 20260903195515 | 87 | 143 | 0.0 | 0.0 | 0.00 | 0.17 | 0.17 | 69 | 1012.8 |
| 20260903195016 | 87 | 253 | 0.0 | 0.0 | 0.00 | 0.17 | 0.17 | 69 | 1012.8 |
| 20260903194507 | 87 | 234 | 0.0 | 0.0 | 0.00 | 0.17 | 0.17 | 70 | 1012.8 |
| 20260903194008 | 87 | 286 | 0.0 | 0.0 | 0.00 | 0.17 | 0.17 | 69 | 1012.8 |
| 20260903193505 | 87 | 215 | 0.0 | 0.0 | 0.00 | 0.20 | 0.17 | 70 | 1012.9 |
| 20260903193002 | 87 | 134 | 0.0 | 0.0 | 0.00 | 0.22 | 0.17 | 71 | 1012.9 |
| 20260903192501 | 86 | 66 | 0.0 | 0.0 | 0.00 | 0.28 | 0.17 | 73 | 1013.0 |
| 20260903192004 | 86 | 235 | 0.0 | 0.0 | 0.00 | 0.31 | 0.17 | 70 | 1013.1 |
| 20260903191503 | 86 | 283 | 0.0 | 0.0 | 0.00 | 0.33 | 0.17 | 70 | 1013.3 |
| 20260903191005 | 86 | 155 | 0.0 | 0.0 | 0.00 | 0.34 | 0.17 | 70 | 1013.3 |
| 20260903190503 | 87 | 225 | 0.0 | 0.0 | 0.00 | 0.35 | 0.17 | 70 | 1013.4 |
| 20260903190010 | 87 | 240 | 0.0 | 0.0 | 0.00 | 0.36 | 0.17 | 69 | 1013.4 |
| 20260903185502 | 86 | 235 | 0.0 | 0.0 | 0.00 | 0.38 | 0.17 | 70 | 1013.5 |
| 20260903185003 | 87 | 338 | 0.0 | 0.0 | 0.00 | 0.38 | 0.17 | 70 | 1013.5 |
| 20260903184508 | 87 | 230 | 0.0 | 0.0 | 0.00 | 0.38 | 0.17 | 69 | 1013.6 |
| 20260903184004 | 87 | 221 | 0.0 | 0.0 | 0.00 | 0.38 | 0.17 | 70 | 1013.6 |
| 20260903183504 | 87 | 231 | 0.0 | 0.0 | 0.00 | 0.38 | 0.17 | 68 | 1013.6 |
| 20260903183022 | 86 | 238 | 0.0 | 0.0 | 0.00 | 0.38 | 0.17 | 70 | 1013.7 |
| 20260903182507 | 86 | 338 | 0.0 | 0.0 | 0.00 | 0.38 | 0.17 | 69 | 1013.7 |
| 20260903182009 | 86 | 204 | 0.0 | 0.0 | 0.00 | 0.38 | 0.17 | 69 | 1013.7 |
| 20260903181516 | 86 | 215 | 0.0 | 0.0 | 0.00 | 0.38 | 0.17 | 69 | 1013.7 |
| 20260903181006 | 86 | 350 | 0.0 | 0.0 | 0.00 | 0.38 | 0.17 | 70 | 1013.7 |
| 20260903180503 | 86 | 226 | 0.0 | 0.0 | 0.00 | 0.38 | 0.17 | 69 | 1013.8 |
| 20260903180003 | 85 | 281 | 0.0 | 0.0 | 0.00 | 0.38 | 0.17 | 69 | 1013.8 |
| 20260903175503 | 85 | 218 | 0.0 | 0.0 | 0.00 | 0.38 | 0.17 | 70 | 1013.9 |
| 20260903175003 | 85 | 174 | 0.0 | 0.0 | 0.00 | 0.38 | 0.17 | 71 | 1013.9 |
| 20260903174505 | 85 | 4 | 0.0 | 0.0 | 0.00 | 0.38 | 0.17 | 72 | 1014.0 |
| 20260903174004 | 85 | 131 | 0.0 | 0.0 | 0.00 | 0.38 | 0.17 | 72 | 1014.1 |
| 20260903173503 | 85 | 314 | 0.0 | 0.0 | 0.00 | 0.38 | 0.17 | 71 | 1014.1 |
| 20260903173011 | 85 | 33 | 0.0 | 0.0 | 0.00 | 0.38 | 0.17 | 73 | 1014.2 |
| 20260903172505 | 85 | 166 | 0.0 | 0.0 | 0.00 | 0.38 | 0.17 | 73 | 1014.3 |
| 20260903172006 | 84 | 289 | 0.0 | 0.0 | 0.00 | 0.38 | 0.17 | 73 | 1014.4 |
| 20260903171513 | 84 | 237 | 0.0 | 0.0 | 0.00 | 0.38 | 0.17 | 72 | 1014.4 |
| 20260903171007 | 84 | 254 | 0.0 | 0.0 | 0.00 | 0.38 | 0.17 | 75 | 1014.5 |
| 20260903170510 | 83 | 263 | 0.0 | 0.0 | 0.00 | 0.38 | 0.17 | 74 | 1014.6 |
| 20260903170023 | 83 | 120 | 0.0 | 0.0 | 0.00 | 0.38 | 0.17 | 74 | 1014.7 |
| 20260903165513 | 83 | 204 | 0.0 | 0.0 | 0.00 | 0.38 | 0.17 | 74 | 1014.7 |
| 20260903165003 | 83 | 189 | 0.0 | 0.0 | 0.00 | 0.38 | 0.17 | 75 | 1014.8 |
| 20260903164503 | 83 | 256 | 0.0 | 0.0 | 0.00 | 0.38 | 0.17 | 75 | 1014.8 |
| 20260903164004 | 82 | 249 | 0.0 | 0.0 | 0.00 | 0.38 | 0.17 | 77 | 1014.8 |
| 20260903163503 | 82 | 209 | 0.0 | 0.0 | 0.00 | 0.38 | 0.17 | 77 | 1014.8 |
| 20260903163007 | 82 | 129 | 0.0 | 0.0 | 0.00 | 0.38 | 0.17 | 77 | 1014.8 |
| 20260903162506 | 82 | 58 | 0.0 | 0.0 | 0.00 | 0.38 | 0.17 | 78 | 1014.8 |
| 20260903162003 | 82 | 214 | 0.0 | 0.0 | 0.00 | 0.38 | 0.17 | 76 | 1014.8 |
| 20260903161512 | 82 | 283 | 0.0 | 0.0 | 0.00 | 0.38 | 0.17 | 79 | 1014.9 |
| 20260903161004 | 81 | 233 | 0.0 | 0.0 | 0.00 | 0.38 | 0.17 | 78 | 1015.0 |
| 20260903160508 | 81 | 298 | 0.0 | 0.0 | 0.00 | 0.38 | 0.17 | 78 | 1015.1 |
| 20260903160018 | 81 | 240 | 0.0 | 0.0 | 0.00 | 0.38 | 0.17 | 80 | 1015.3 |
| 20260903155511 | 80 | 161 | 0.0 | 0.0 | 0.00 | 0.38 | 0.17 | 80 | 1015.5 |
| 20260903155011 | 80 | 265 | 0.0 | 0.0 | 0.00 | 0.38 | 0.17 | 80 | 1015.6 |
| 20260903154526 | 80 | 252 | 0.0 | 0.0 | 0.00 | 0.38 | 0.17 | 81 | 1015.6 |
| 20260903154012 | 80 | 301 | 0.0 | 0.0 | 0.00 | 0.38 | 0.17 | 82 | 1015.5 |
| 20260903153503 | 79 | 278 | 0.0 | 0.0 | 0.00 | 0.38 | 0.17 | 82 | 1015.4 |
| 20260903153003 | 79 | 258 | 0.0 | 0.0 | 0.00 | 0.38 | 0.17 | 82 | 1015.4 |
| 20260903152507 | 79 | 338 | 0.0 | 0.0 | 0.00 | 0.38 | 0.17 | 83 | 1015.3 |
| 20260903152004 | 79 | 217 | 0.0 | 0.0 | 0.00 | 0.38 | 0.17 | 82 | 1015.5 |
| 20260903151510 | 79 | 98 | 0.0 | 0.0 | 0.00 | 0.38 | 0.17 | 83 | 1015.5 |
| 20260903151006 | 79 | 155 | 0.0 | 0.0 | 0.00 | 0.38 | 0.17 | 83 | 1015.6 |
| 20260903150503 | 79 | 264 | 0.0 | 0.0 | 0.00 | 0.38 | 0.17 | 82 | 1015.4 |
| 20260903150017 | 79 | 222 | 0.0 | 0.0 | 0.00 | 0.38 | 0.17 | 83 | 1015.3 |
| 20260903145507 | 79 | 295 | 0.0 | 0.0 | 0.00 | 0.38 | 0.17 | 83 | 1015.5 |
| 20260903145008 | 78 | 229 | 0.0 | 0.0 | 0.00 | 0.38 | 0.17 | 84 | 1015.2 |
| 20260903144520 | 78 | 169 | 0.0 | 0.0 | 0.00 | 0.38 | 0.17 | 84 | 1015.3 |
| 20260903144010 | 78 | 160 | 0.0 | 0.0 | 0.00 | 0.38 | 0.17 | 86 | 1015.4 |
| 20260903143510 | 78 | 257 | 0.0 | 0.0 | 0.00 | 0.38 | 0.17 | 85 | 1015.5 |
| 20260903143026 | 78 | 220 | 0.0 | 0.0 | 0.00 | 0.38 | 0.17 | 85 | 1015.5 |
| 20260903142512 | 78 | 200 | 0.0 | 0.0 | 0.00 | 0.38 | 0.17 | 86 | 1015.5 |
| 20260903142015 | 77 | 140 | 0.0 | 0.0 | 0.00 | 0.38 | 0.17 | 86 | 1015.5 |
| 20260903141509 | 77 | 210 | 0.0 | 0.0 | 0.00 | 0.38 | 0.17 | 87 | 1015.7 |
| 20260903141003 | 76 | 143 | 0.0 | 0.0 | 0.00 | 0.38 | 0.17 | 88 | 1015.7 |
| 20260903140502 | 76 | 208 | 0.0 | 0.0 | 0.00 | 0.38 | 0.17 | 88 | 1015.5 |
| 20260903140012 | 76 | 230 | 0.0 | 0.0 | 0.00 | 0.38 | 0.17 | 88 | 1015.4 |
| 20260903135506 | 75 | 156 | 0.0 | 0.0 | 0.00 | 0.38 | 0.17 | 89 | 1015.6 |
| 20260903135006 | 75 | 148 | 0.0 | 0.0 | 0.00 | 0.38 | 0.17 | 90 | 1015.9 |
| 20260903134516 | 75 | 200 | 0.0 | 0.0 | 0.00 | 0.38 | 0.17 | 91 | 1016.1 |
| 20260903134009 | 74 | 200 | 0.0 | 0.0 | 0.00 | 0.38 | 0.17 | 92 | 1016.1 |
| 20260903133509 | 73 | 124 | 0.0 | 0.0 | 0.00 | 0.38 | 0.17 | 93 | 1016.2 |
| 20260903133021 | 73 | 143 | 0.0 | 0.0 | 0.00 | 0.38 | 0.17 | 93 | 1016.2 |
| 20260903132509 | 73 | 153 | 0.0 | 0.0 | 0.00 | 0.38 | 0.17 | 93 | 1016.0 |
| 20260903132013 | 73 | 149 | 0.0 | 0.0 | 0.00 | 0.38 | 0.17 | 94 | 1016.0 |
| 20260903131527 | 73 | 191 | 0.0 | 0.0 | 0.00 | 0.38 | 0.17 | 94 | 1015.9 |
| 20260903131012 | 73 | 157 | 0.0 | 0.0 | 0.00 | 0.38 | 0.17 | 95 | 1016.2 |
| 20260903130518 | 73 | 155 | 0.0 | 0.0 | 0.00 | 0.38 | 0.17 | 95 | 1016.5 |
| 20260903130032 | 72 | 143 | 0.0 | 0.0 | 0.00 | 0.38 | 0.17 | 96 | 1016.4 |
| 20260903125507 | 72 | 142 | 0.0 | 0.0 | 0.00 | 0.38 | 0.17 | 96 | 1016.3 |
| 20260903125004 | 72 | 142 | 0.0 | 0.0 | 0.00 | 0.38 | 0.17 | 97 | 1016.3 |
| 20260903124514 | 71 | 142 | 0.0 | 0.0 | 0.00 | 0.38 | 0.17 | 97 | 1016.5 |
| 20260903124005 | 71 | 142 | 0.0 | 0.0 | 0.00 | 0.38 | 0.17 | 97 | 1016.4 |
| 20260903123516 | 71 | 142 | 0.0 | 0.0 | 0.00 | 0.38 | 0.17 | 97 | 1016.4 |
| 20260903123019 | 71 | 142 | 0.0 | 0.0 | 0.00 | 0.38 | 0.17 | 97 | 1016.3 |
| 20260903122514 | 71 | 142 | 0.0 | 0.0 | 0.00 | 0.38 | 0.17 | 97 | 1016.4 |
| 20260903122009 | 71 | 142 | 0.0 | 0.0 | 0.00 | 0.38 | 0.17 | 97 | 1016.3 |
| 20260903121529 | 70 | 142 | 0.0 | 0.0 | 0.00 | 0.38 | 0.17 | 97 | 1016.1 |
| 20260903121013 | 70 | 130 | 0.0 | 0.0 | 0.00 | 0.38 | 0.17 | 97 | 1016.3 |
| 20260903120514 | 71 | 169 | 0.0 | 0.0 | 0.00 | 0.38 | 0.17 | 97 | 1016.7 |
| 20260903120041 | 70 | 165 | 0.0 | 0.0 | 0.00 | 0.38 | 0.17 | 97 | 1016.6 |
| 20260903115516 | 71 | 216 | 0.0 | 0.0 | 0.00 | 0.38 | 0.17 | 97 | 1016.5 |
| 20260903115015 | 71 | 246 | 0.0 | 0.0 | 0.00 | 0.38 | 0.17 | 98 | 1016.7 |
| 20260903114530 | 70 | 214 | 0.0 | 0.0 | 0.00 | 0.38 | 0.17 | 98 | 1016.6 |
| 20260903114004 | 70 | 212 | 0.0 | 0.0 | 0.00 | 0.38 | 0.17 | 99 | 1016.4 |
| 20260903113507 | 70 | 212 | 0.0 | 0.0 | 0.00 | 0.38 | 0.17 | 99 | 1016.3 |
| 20260903113016 | 70 | 213 | 0.0 | 0.0 | 0.00 | 0.38 | 0.17 | 98 | 1016.5 |
| 20260903112509 | 70 | 212 | 0.0 | 0.0 | 0.00 | 0.38 | 0.17 | 98 | 1016.4 |
| 20260903112009 | 70 | 212 | 0.0 | 0.0 | 0.00 | 0.38 | 0.17 | 98 | 1016.2 |
| 20260903111520 | 69 | 180 | 0.0 | 0.0 | 0.00 | 0.38 | 0.17 | 98 | 1016.2 |
| 20260903111017 | 0 | 0.0 | 0.0 | 0.00 | 0.38 | 0.17 | 1016.1 | ||
| 20260903110519 | 0 | 0.0 | 0.0 | 0.00 | 0.38 | 0.17 | 1015.9 | ||
| 20260903110037 | 0 | 0.0 | 0.0 | 0.00 | 0.38 | 0.17 | 1016.0 | ||
| 20260903105518 | 0 | 0.0 | 0.0 | 0.00 | 0.38 | 0.17 | 1016.1 | ||
| 20260903105023 | 0 | 0.0 | 0.0 | 0.00 | 0.38 | 0.17 | 1016.2 | ||
| 20260903104537 | 0 | 0.0 | 0.0 | 0.00 | 0.38 | 0.17 | 1016.4 | ||
| 20260903104017 | 0 | 0.0 | 0.0 | 0.00 | 0.38 | 0.17 | 1016.3 | ||
| 20260903103515 | 0 | 0.0 | 0.0 | 0.00 | 0.38 | 0.17 | 1016.4 | ||
| 20260903103035 | 0 | 0.0 | 0.0 | 0.00 | 0.38 | 0.17 | 1016.4 | ||
| 20260903102519 | 0 | 0.0 | 0.0 | 0.00 | 0.38 | 0.17 | 1016.2 | ||
| 20260903102020 | 0 | 0.0 | 0.0 | 0.00 | 0.38 | 0.17 | 1016.1 | ||
| 20260903101538 | 0 | 0.0 | 0.0 | 0.00 | 0.38 | 0.17 | 1015.9 | ||
| 20260903101018 | 0 | 0.0 | 0.0 | 0.00 | 0.38 | 0.17 | 1015.9 | ||
| 20260903100519 | 0 | 0.0 | 0.0 | 0.00 | 0.38 | 0.17 | 1015.9 | ||
| 20260903100044 | 0 | 0.0 | 0.0 | 0.00 | 0.38 | 0.17 | 1015.9 | ||
| 20260903095517 | 0 | 0.0 | 0.0 | 0.00 | 0.38 | 0.17 | 1015.8 | ||
| 20260903095019 | 0 | 0.0 | 0.0 | 0.00 | 0.38 | 0.17 | 1015.3 | ||
| 20260903094537 | 0 | 0.0 | 0.0 | 0.00 | 0.38 | 0.17 | 1015.5 | ||
| 20260903094020 | 0 | 0.0 | 0.0 | 0.00 | 0.38 | 0.17 | 1016.2 | ||
| 20260903093504 | 70 | 217 | 0.0 | 0.0 | 0.00 | 0.38 | 0.17 | 100 | 1016.0 |
| 20260903093014 | 70 | 133 | 0.0 | 0.0 | 0.00 | 0.38 | 0.17 | 100 | 1015.8 |
| 20260903092506 | 70 | 226 | 0.0 | 0.0 | 0.00 | 0.38 | 0.17 | 100 | 1015.8 |
| 20260903092011 | 70 | 205 | 0.0 | 0.0 | 0.00 | 0.38 | 0.17 | 100 | 1015.8 |
| 20260903091518 | 70 | 137 | 0.0 | 0.0 | 0.00 | 0.38 | 0.17 | 100 | 1015.7 |
| 20260903091007 | 70 | 170 | 0.0 | 0.0 | 0.00 | 0.38 | 0.17 | 100 | 1015.7 |
| 20260903090510 | 70 | 246 | 0.0 | 0.0 | 0.00 | 0.38 | 0.17 | 100 | 1015.7 |
| 20260903090026 | 70 | 179 | 0.0 | 0.0 | 0.00 | 0.38 | 0.17 | 100 | 1015.7 |
| 20260903085514 | 70 | 154 | 0.0 | 0.0 | 0.00 | 0.38 | 0.17 | 100 | 1015.6 |
| 20260903085011 | 70 | 122 | 0.0 | 0.0 | 0.00 | 0.38 | 0.17 | 100 | 1015.2 |
| 20260903084528 | 70 | 127 | 0.0 | 0.0 | 0.00 | 0.38 | 0.17 | 100 | 1015.4 |
| 20260903084013 | 70 | 135 | 0.0 | 0.0 | 0.00 | 0.38 | 0.17 | 100 | 1015.8 |
| 20260903083515 | 70 | 126 | 0.0 | 0.0 | 0.01 | 0.38 | 0.17 | 100 | 1016.1 |
| 20260903083042 | 70 | 134 | 0.0 | 0.0 | 0.01 | 0.38 | 0.17 | 100 | 1016.4 |
| 20260903082507 | 69 | 160 | 0.0 | 0.0 | 0.01 | 0.38 | 0.17 | 100 | 1016.5 |
| 20260903082003 | 69 | 159 | 0.0 | 0.0 | 0.01 | 0.38 | 0.17 | 100 | 1016.6 |
| 20260903081514 | 69 | 228 | 0.0 | 0.0 | 0.01 | 0.38 | 0.17 | 100 | 1016.7 |
| 20260903081008 | 69 | 219 | 0.0 | 0.0 | 0.02 | 0.38 | 0.17 | 100 | 1016.7 |
| 20260903080508 | 69 | 202 | 0.0 | 0.0 | 0.03 | 0.38 | 0.17 | 99 | 1016.6 |
| 20260903080023 | 69 | 164 | 0.0 | 0.0 | 0.03 | 0.38 | 0.17 | 99 | 1016.2 |
| 20260903075513 | 69 | 125 | 0.0 | 0.0 | 0.04 | 0.38 | 0.17 | 99 | 1016.0 |
| 20260903075014 | 69 | 110 | 0.0 | 0.0 | 0.04 | 0.38 | 0.17 | 99 | 1016.2 |
| 20260903074528 | 69 | 99 | 0.0 | 0.0 | 0.05 | 0.38 | 0.17 | 99 | 1016.4 |
| 20260903074013 | 69 | 65 | 0.0 | 0.0 | 0.05 | 0.38 | 0.17 | 99 | 1016.6 |
| 20260903073514 | 69 | 65 | 0.0 | 0.0 | 0.05 | 0.37 | 0.16 | 99 | 1016.6 |
| 20260903073030 | 69 | 146 | 0.0 | 0.0 | 0.05 | 0.37 | 0.16 | 99 | 1016.6 |
| 20260903072518 | 69 | 149 | 0.0 | 0.0 | 0.05 | 0.37 | 0.16 | 99 | 1016.7 |
| 20260903072017 | 69 | 167 | 0.0 | 0.0 | 0.05 | 0.37 | 0.16 | 99 | 1016.9 |
| 20260903071532 | 69 | 166 | 0.0 | 0.0 | 0.05 | 0.37 | 0.16 | 99 | 1016.8 |
| 20260903071016 | 69 | 172 | 0.0 | 0.0 | 0.04 | 0.36 | 0.15 | 99 | 1016.8 |
| 20260903070509 | 68 | 156 | 0.0 | 0.0 | 0.03 | 0.35 | 0.14 | 99 | 1016.9 |
| 20260903070020 | 69 | 158 | 0.0 | 0.0 | 0.03 | 0.35 | 0.14 | 99 | 1016.9 |
| 20260903065508 | 68 | 146 | 0.0 | 0.0 | 0.03 | 0.34 | 0.13 | 99 | 1017.1 |
| 20260903065016 | 68 | 146 | 0.0 | 0.0 | 0.03 | 0.34 | 0.13 | 99 | 1017.2 |
| 20260903064525 | 68 | 146 | 0.0 | 0.0 | 0.03 | 0.33 | 0.12 | 99 | 1017.2 |
| 20260903064011 | 68 | 160 | 0.0 | 0.0 | 0.03 | 0.33 | 0.12 | 99 | 1017.3 |
| 20260903063512 | 68 | 170 | 0.0 | 0.0 | 0.02 | 0.32 | 0.11 | 99 | 1017.4 |
| 20260903063027 | 68 | 170 | 0.0 | 0.0 | 0.02 | 0.32 | 0.11 | 99 | 1017.2 |
| 20260903062514 | 68 | 170 | 0.0 | 0.0 | 0.02 | 0.32 | 0.11 | 99 | 1017.1 |
| 20260903062014 | 68 | 170 | 0.0 | 0.0 | 0.02 | 0.32 | 0.11 | 99 | 1017.2 |
| 20260903061546 | 68 | 170 | 0.0 | 0.0 | 0.03 | 0.32 | 0.11 | 99 | 1017.2 |
| 20260903061019 | 68 | 183 | 0.0 | 0.0 | 0.03 | 0.32 | 0.11 | 99 | 1017.3 |
| 20260903060516 | 68 | 217 | 0.0 | 0.0 | 0.05 | 0.32 | 0.11 | 99 | 1017.3 |
| 20260903060034 | 68 | 210 | 0.0 | 0.0 | 0.09 | 0.32 | 0.11 | 99 | 1017.5 |
| 20260903055516 | 68 | 155 | 0.0 | 0.0 | 0.09 | 0.31 | 0.10 | 99 | 1017.4 |
| 20260903055007 | 68 | 123 | 0.0 | 0.0 | 0.09 | 0.31 | 0.10 | 99 | 1017.3 |
| 20260903054520 | 68 | 132 | 0.0 | 0.0 | 0.08 | 0.30 | 0.09 | 99 | 1017.6 |
| 20260903054009 | 68 | 88 | 0.0 | 0.0 | 0.08 | 0.30 | 0.09 | 99 | 1017.3 |
| 20260903053509 | 68 | 89 | 0.0 | 0.0 | 0.09 | 0.30 | 0.09 | 98 | 1017.7 |
| 20260903053027 | 68 | 88 | 0.0 | 0.0 | 0.09 | 0.30 | 0.09 | 98 | 1018.1 |
| 20260903052512 | 68 | 88 | 0.0 | 0.0 | 0.09 | 0.30 | 0.09 | 98 | 1018.2 |
| 20260903052014 | 68 | 200 | 0.0 | 0.0 | 0.09 | 0.30 | 0.09 | 98 | 1018.7 |
| 20260903051532 | 69 | 229 | 0.0 | 0.0 | 0.08 | 0.29 | 0.08 | 98 | 1019.1 |
| 20260903051014 | 69 | 240 | 0.0 | 0.0 | 0.08 | 0.29 | 0.08 | 98 | 1019.5 |
| 20260903050516 | 69 | 329 | 0.0 | 0.0 | 0.06 | 0.27 | 0.06 | 98 | 1019.6 |
| 20260903050033 | 69 | 233 | 0.0 | 0.0 | 0.02 | 0.23 | 0.02 | 98 | 1019.5 |
| 20260903045516 | 68 | 290 | 0.0 | 0.0 | 0.01 | 0.22 | 0.01 | 98 | 1019.1 |
| 20260903045015 | 68 | 255 | 0.0 | 0.0 | 0.01 | 0.22 | 0.01 | 98 | 1018.7 |
| 20260903044530 | 68 | 226 | 0.0 | 0.0 | 0.01 | 0.22 | 0.01 | 97 | 1018.8 |
| 20260903044015 | 69 | 222 | 0.0 | 0.0 | 0.01 | 0.22 | 0.01 | 97 | 1019.1 |
| 20260903043518 | 69 | 346 | 0.0 | 0.0 | 0.00 | 0.21 | 0.00 | 97 | 1019.4 |
| 20260903043020 | 69 | 286 | 0.0 | 0.0 | 0.00 | 0.21 | 0.00 | 97 | 1019.3 |
| 20260903042510 | 68 | 308 | 0.0 | 0.0 | 0.00 | 0.21 | 0.00 | 97 | 1019.2 |
| 20260903042013 | 69 | 1 | 0.0 | 0.0 | 0.00 | 0.21 | 0.00 | 96 | 1019.1 |
| 20260903041533 | 69 | 4 | 0.0 | 0.0 | 0.00 | 0.21 | 0.00 | 96 | 1018.9 |
| 20260903041013 | 69 | 4 | 0.0 | 0.0 | 0.00 | 0.21 | 0.00 | 96 | 1018.9 |
| 20260903040514 | 69 | 4 | 0.0 | 0.0 | 0.00 | 0.21 | 0.00 | 96 | 1018.9 |
| 20260903040030 | 69 | 4 | 0.0 | 0.0 | 0.00 | 0.21 | 0.00 | 96 | 1019.2 |
| 20260903035513 | 69 | 4 | 0.0 | 0.0 | 0.00 | 0.21 | 0.21 | 96 | 1019.1 |
| 20260903035020 | 69 | 4 | 0.0 | 0.0 | 0.00 | 0.21 | 0.21 | 96 | 1019.2 |
| 20260903034533 | 68 | 4 | 0.0 | 0.0 | 0.00 | 0.21 | 0.21 | 96 | 1019.3 |
| 20260903034017 | 68 | 4 | 0.0 | 0.0 | 0.00 | 0.21 | 0.21 | 96 | 1019.1 |
| 20260903033515 | 68 | 4 | 0.0 | 0.0 | 0.00 | 0.21 | 0.21 | 96 | 1019.2 |
| 20260903033034 | 68 | 4 | 0.0 | 0.0 | 0.00 | 0.21 | 0.21 | 96 | 1019.0 |
| 20260903032518 | 68 | 4 | 0.0 | 0.0 | 0.00 | 0.21 | 0.21 | 96 | 1018.7 |
| 20260903032019 | 68 | 4 | 0.0 | 0.0 | 0.00 | 0.21 | 0.21 | 96 | 1018.8 |
| 20260903031512 | 68 | 12 | 0.0 | 0.0 | 0.00 | 0.21 | 0.21 | 96 | 1018.9 |
| 20260903031002 | 68 | 12 | 0.0 | 0.0 | 0.00 | 0.21 | 0.21 | 96 | 1019.0 |
| 20260903030504 | 68 | 1 | 0.0 | 0.0 | 0.00 | 0.21 | 0.21 | 95 | 1018.9 |
| 20260903030004 | 68 | 1 | 0.0 | 0.0 | 0.00 | 0.21 | 0.21 | 95 | 1018.9 |
| 20260903025504 | 68 | 17 | 0.0 | 0.0 | 0.00 | 0.21 | 0.21 | 95 | 1018.9 |
| 20260903025003 | 68 | 17 | 0.0 | 0.0 | 0.00 | 0.21 | 0.21 | 95 | 1019.0 |
| 20260903024503 | 68 | 13 | 0.0 | 0.0 | 0.00 | 0.21 | 0.21 | 95 | 1019.3 |
| 20260903024002 | 68 | 12 | 0.0 | 0.0 | 0.00 | 0.21 | 0.21 | 95 | 1019.3 |
| 20260903023503 | 68 | 12 | 0.0 | 0.0 | 0.00 | 0.21 | 0.21 | 95 | 1019.4 |
| 20260903023004 | 68 | 358 | 0.0 | 0.0 | 0.00 | 0.21 | 0.21 | 95 | 1019.6 |
| 20260903022502 | 68 | 342 | 0.0 | 0.0 | 0.00 | 0.21 | 0.21 | 96 | 1019.8 |
| 20260903022004 | 68 | 345 | 0.0 | 0.0 | 0.00 | 0.21 | 0.21 | 95 | 1019.3 |
| 20260903021504 | 68 | 344 | 0.0 | 0.0 | 0.00 | 0.21 | 0.21 | 95 | 1019.4 |
| 20260903021003 | 68 | 349 | 0.0 | 0.0 | 0.00 | 0.21 | 0.21 | 95 | 1019.4 |
| 20260903020502 | 68 | 350 | 0.0 | 0.0 | 0.00 | 0.21 | 0.21 | 95 | 1019.3 |
| 20260903020010 | 68 | 349 | 0.0 | 0.0 | 0.00 | 0.21 | 0.21 | 95 | 1019.4 |
| 20260903015503 | 68 | 353 | 0.0 | 0.0 | 0.00 | 0.21 | 0.21 | 95 | 1019.3 |
| 20260903015003 | 68 | 353 | 0.0 | 0.0 | 0.00 | 0.21 | 0.21 | 95 | 1019.4 |
| 20260903014504 | 68 | 346 | 0.0 | 0.0 | 0.00 | 0.21 | 0.21 | 95 | 1019.7 |
| 20260903014003 | 68 | 345 | 0.0 | 0.0 | 0.00 | 0.21 | 0.21 | 95 | 1019.9 |
| 20260903013503 | 68 | 341 | 0.0 | 0.0 | 0.00 | 0.21 | 0.21 | 95 | 1019.9 |
| 20260903013004 | 68 | 345 | 0.0 | 0.0 | 0.00 | 0.21 | 0.21 | 95 | 1020.0 |
| 20260903012503 | 68 | 344 | 0.0 | 0.0 | 0.00 | 0.21 | 0.21 | 95 | 1019.9 |
| 20260903012008 | 68 | 352 | 0.0 | 0.0 | 0.00 | 0.21 | 0.21 | 95 | 1019.8 |
| 20260903011508 | 68 | 18 | 0.0 | 0.0 | 0.00 | 0.21 | 0.21 | 95 | 1020.1 |
| 20260903011003 | 68 | 28 | 0.0 | 0.0 | 0.00 | 0.21 | 0.21 | 95 | 1020.1 |
| 20260903010503 | 68 | 15 | 0.0 | 0.0 | 0.00 | 0.21 | 0.21 | 95 | 1020.0 |
| 20260903010012 | 68 | 68 | 0.0 | 0.0 | 0.00 | 0.21 | 0.21 | 94 | 1020.1 |
| 20260903005504 | 68 | 13 | 0.0 | 0.0 | 0.00 | 0.21 | 0.21 | 94 | 1020.2 |
| 20260903005002 | 68 | 347 | 0.0 | 0.0 | 0.00 | 0.21 | 0.21 | 94 | 1020.4 |
| 20260903004506 | 68 | 345 | 0.0 | 0.0 | 0.00 | 0.21 | 0.21 | 94 | 1020.6 |
| 20260903004003 | 68 | 13 | 0.0 | 0.0 | 0.00 | 0.21 | 0.21 | 94 | 1020.6 |
| 20260903003503 | 68 | 358 | 0.0 | 0.0 | 0.00 | 0.21 | 0.21 | 94 | 1020.5 |
| 20260903003009 | 68 | 356 | 0.0 | 0.0 | 0.00 | 0.21 | 0.21 | 94 | 1020.5 |
| 20260903002505 | 68 | 338 | 0.0 | 0.0 | 0.00 | 0.21 | 0.21 | 95 | 1020.2 |
| 20260903002005 | 68 | 350 | 0.0 | 0.0 | 0.00 | 0.21 | 0.21 | 95 | 1020.1 |
| 20260903001507 | 68 | 359 | 0.0 | 0.0 | 0.00 | 0.21 | 0.21 | 95 | 1020.0 |
| 20260903001005 | 68 | 347 | 0.0 | 0.0 | 0.00 | 0.22 | 0.21 | 95 | 1019.8 |
| 20260903000503 | 68 | 357 | 0.0 | 0.0 | 0.00 | 0.22 | 0.21 | 94 | 1019.9 |
| 20260903000008 | 68 | 355 | 0.0 | 0.0 | 0.00 | 0.22 | 0.21 | 95 | 1019.8 |
| 20260902235504 | 68 | 326 | 0.0 | 0.0 | 0.00 | 0.22 | 0.21 | 95 | 1019.6 |
| 20260902235003 | 68 | 26 | 0.0 | 0.0 | 0.00 | 0.22 | 0.21 | 95 | 1019.6 |
| 20260902234509 | 68 | 354 | 0.0 | 0.0 | 0.00 | 0.22 | 0.21 | 95 | 1019.7 |
| 20260902234003 | 68 | 343 | 0.0 | 0.0 | 0.00 | 0.22 | 0.21 | 95 | 1019.7 |
| 20260902233506 | 68 | 14 | 0.0 | 0.0 | 0.00 | 0.22 | 0.21 | 95 | 1019.8 |
| 20260902233004 | 68 | 356 | 0.0 | 0.0 | 0.00 | 0.22 | 0.21 | 95 | 1019.7 |
| 20260902232504 | 68 | 42 | 0.0 | 0.0 | 0.00 | 0.22 | 0.21 | 94 | 1019.6 |
| 20260902232003 | 68 | 340 | 0.0 | 0.0 | 0.00 | 0.22 | 0.21 | 94 | 1019.7 |
| 20260902231509 | 68 | 56 | 0.0 | 0.0 | 0.00 | 0.22 | 0.21 | 94 | 1019.6 |
| 20260902231006 | 68 | 338 | 0.0 | 0.0 | 0.00 | 0.22 | 0.21 | 94 | 1019.6 |
| 20260902230504 | 68 | 353 | 0.0 | 0.0 | 0.00 | 0.22 | 0.21 | 94 | 1019.6 |
| 20260902230011 | 68 | 34 | 0.0 | 0.0 | 0.00 | 0.22 | 0.21 | 94 | 1019.8 |
| 20260902225505 | 68 | 27 | 0.0 | 0.0 | 0.00 | 0.22 | 0.21 | 93 | 1020.0 |
| 20260902225006 | 68 | 349 | 0.0 | 0.0 | 0.00 | 0.22 | 0.21 | 93 | 1020.1 |